This is the latest recevied weather packets stored in our database for station/object KF4WSW-13. If no packets are shown the sender has not sent any weather packets the latest 10 day(s).
| Time | Temp. | Humidity | Pressure | Rain* | Wind** | Luminosity | Snow |
|---|---|---|---|---|---|---|---|
| 1777808573 | 17.22° C | 90% | 1014.9 hPa | 0 mm | - | 40 W/m² | - |
| 1777808270 | 17.22° C | 90% | 1015 hPa | 0 mm | - | 31 W/m² | - |
| 1777807969 | 17.22° C | 90% | 1015.2 hPa | 0 mm | - | 32 W/m² | - |
| 1777807666 | 17.22° C | 90% | 1015 hPa | 0 mm | - | 26 W/m² | - |
| 1777807364 | 17.22° C | 90% | 1015.1 hPa | 0 mm | - | 21 W/m² | - |
| 1777807059 | 17.22° C | 90% | 1015.1 hPa | 0 mm | - | 17 W/m² | - |
| 1777806757 | 17.22° C | 90% | 1014.9 hPa | 0 mm | - | 11 W/m² | - |
| 1777806452 | 17.22° C | 90% | 1015 hPa | 0 mm | - | 9 W/m² | - |
| 1777806150 | 17.22° C | 90% | 1014.7 hPa | 0 mm | - | 6 W/m² | - |
| 1777805846 | 17.22° C | 90% | 1014.8 hPa | 0 mm | - | 4 W/m² | - |
| 1777805543 | 17.22° C | 90% | 1014.7 hPa | 0 mm | - | 2 W/m² | - |
| 1777805241 | 17.22° C | 90% | 1014.7 hPa | 0 mm | - | 1 W/m² | - |
| 1777804939 | 17.22° C | 90% | 1014.6 hPa | 0 mm | - | 0 W/m² | - |
| 1777804636 | 17.22° C | 90% | 1014.8 hPa | 0 mm | - | 0 W/m² | - |
| 1777804334 | 17.22° C | 89% | 1014.6 hPa | 0 mm | - | 0 W/m² | - |
| 1777804030 | 17.78° C | 89% | 1014.7 hPa | 0 mm | - | 0 W/m² | - |
| 1777803727 | 17.22° C | 89% | 1014.2 hPa | 0 mm | - | 0 W/m² | - |
| 1777803423 | 17.22° C | 88% | 1014.4 hPa | 0 mm | - | 0 W/m² | - |
| 1777803121 | 17.22° C | 88% | 1014.2 hPa | 0 mm | - | 0 W/m² | - |
| 1777802818 | 17.22° C | 88% | 1014.5 hPa | 0 mm | - | 0 W/m² | - |
| 1777802515 | 17.22° C | 88% | 1014.3 hPa | 0 mm | - | 0 W/m² | - |
| 1777802213 | 17.78° C | 88% | 1014.3 hPa | 0 mm | - | 0 W/m² | - |
| 1777801911 | 17.78° C | 88% | 1014.2 hPa | 0 mm | - | 0 W/m² | - |
| 1777801608 | 17.22° C | 87% | 1014.2 hPa | 0 mm | - | 0 W/m² | - |
| 1777801305 | 17.78° C | 87% | 1014.5 hPa | 0 mm | - | 0 W/m² | - |
* Rain latest hour (hover to see other rain measurements)
** Current wind speed in m/s (hover to see current wind gust speed)